Location: Voyageurs National Park
(48.5020°N, 92.9292°W)
Time: 09:53:01
(UTC-06:00)

CENTAUR R/B - Pass Details

Date: 19 January 2018
Orbit: 817 x 1371 km, 63.5° (Epoch: 22 February)

Event Time Altitude Azimuth Distance (km) Brightness Sun altitude
Exits shadow 07:04:35 - 302° (WNW) 2,958 4.4 -8.4°
Reaches altitude 10° 07:04:47 10° 304° (WNW) 2,905 4.3 -8.4°
Maximum altitude 07:10:25 25° 358° (N) 2,150 4.1 -7.5°
Drops below altitude 10° 07:16:37 10° 51° (NE) 3,232 5.6 -6.5°
Sets 07:20:13 0° 64° (ENE) 4,279 6.5 -6.0°
